Tracking 26922 objects as of 31-Jan-2023
HD Live streaming from Space Station
objects crossing your sky now

D STAR ONE (EXOCONNECT)

Track D STAR ONE (EXOCONNECT) now!
10-day predictions


NORAD ID: 44410
Int'l Code: 2019-038AA
Perigee: 472.3 km
Apogee: 496.5 km
Inclination: 97.7 °
Period: 94.1 minutes
Semi major axis: 6855 km
RCS: Unknown
Launch date: July 5, 2019
Source: Germany (GER)
Launch site: VOSTOCHNY COSMODROME (VOSTO)
Your satellite tracking list
Your tracking list is empty




NASA's NSSDC Master Catalog

Two Line Element Set (TLE):
1 44410U 19038AA  23031.49615385  .00034236  00000-0  11897-2 0  9990
2 44410  97.6531  10.9401 0017621  63.6152 296.6894 15.29517960197816
Source of the keplerian elements: AFSPC